Skip Page Navigation
NASA JPL Caltech
NASA Logo - Jet Propulsion Laboratory + View the NASA Portal
+ Center for Near-Earth Object Studies
JPL Home Earth Solar System Stars & Galaxies Technology
JPL Solar System Dynamics
BODIES ORBITS EPHEMERIDES TOOLS PHYSICAL DATA DISCOVERY FAQ SITE MAP
JPL Small-Body Database Browser
Search: [ help ]  
172351 (2002 VG126)
Classification: Main-belt Asteroid          SPK-ID: 2172351
Ephemeris | Orbit Diagram | Orbital Elements | Mission Design | Physical Parameters | Discovery Circumstances ]

[ show orbit diagram ]
Orbital Elements at Epoch 2459000.5 (2020-May-31.0) TDB
Reference: JPL 14 (heliocentric ecliptic J2000)
 Element Value Uncertainty (1-sigma)   Units 
e .1807027151627069 6.4079e-08  
a 2.73554349962355 2.311e-08 au
q 2.241223361795881 1.8187e-07 au
i 7.231242457462485 6.2784e-06 deg
node 279.5773786039119 5.3626e-05 deg
peri 87.31454640218931 5.6535e-05 deg
M 351.5725918368877 2.0042e-05 deg
tp 2459039.186139398287
(2020-Jul-08.68613940)
9.226e-05 TDB
period 1652.585221200424
4.52
2.0942e-05
5.734e-08
d
yr
n .2178405055192851 2.7605e-09 deg/d
Q 3.229863637451219 2.7287e-08 au
  Orbit Determination Parameters
   # obs. used (total)      549  
   data-arc span      6538 days (17.90 yr)  
   first obs. used      2002-09-06  
   last obs. used      2020-07-31  
   planetary ephem.      DE431  
   SB-pert. ephem.      SB431-N16  
   condition code      0  
   norm. resid. RMS      .47867  
   source      ORB  
   producer      Otto Matic  
   solution date      2020-Aug-25 13:01:13  

Additional Information
 Earth MOID = 1.25408 au 
 Jupiter MOID = 2.31391 au 
 T_jup = 3.317 
[ show covariance matrix ]

Ephemeris | Orbit Diagram | Orbital Elements | Mission Design | Physical Parameters | Discovery Circumstances ]

Physical Parameter Table
Parameter Symbol Value Units Sigma Reference Notes
absolute magnitude H 15.5   n/a MPO294205  

172351 (2002 VG126)          Discovered 2002-Nov-12 by LINEAR at Socorro
Reference: 20071224/Numbers.arcLast Updated: 2007-12-22
Ephemeris | Orbit Diagram | Orbital Elements | Mission Design | Physical Parameters | Discovery Circumstances ]
ABOUT SSD CREDITS/AWARDS PRIVACY/COPYRIGHT GLOSSARY LINKS
FirstGov 2020-Sep-21 19:05 UT
(server date/time)  
NASA Home Page
Site Manager:   Ryan S. Park
Webmaster  Alan B. Chamberlin